Regional Weather Roundup
Issued by NWS

Home | Current Version | Previous Version | Graphics & Text | Print | Product List | Glossary Off
Versions: 1 2 3 4 5 6 7 8 9 10 11 12 13 14 15 16 17 18 19 20 21 22 23 24 25 26 27 28 29 30 31 32 33 34 35 36 37 38 39 40 41 42 43 44 45 46 47 48 49 50

000
ASUS43 KMKX 290321
RWRWI

WISCONSIN REGIONAL WEATHER ROUNDUP
NATIONAL WEATHER SERVICE MILWAUKEE/SULLIVAN WI
1000 PM CDT SUN AUG 28 2016

NOTE: "FAIR" INDICATES FEW OR NO CLOUDS BELOW 12,000 FEET WITH NO
SIGNIFICANT WEATHER AND/OR OBSTRUCTIONS TO VISIBILITY.

WIZ001-002-006>008-014>016-023>028-290400-
NORTHWEST WISCONSIN

CITY           SKY/WX    TMP DP  RH WIND       PRES   REMARKS
SUPERIOR ARPT  CLOUDY    65  64  95 NE7       30.16S
ASHLAND        CLEAR     62  61  96 N5        30.18S
HAYWARD        CLEAR     63  61  93 N3        30.18R
SIREN          CLEAR     69  65  88 SE3       30.15S
CUMBERLAND     CLEAR     66  63  88 SE5       30.17S
RICE LAKE      CLEAR     68  64  88 SE3       30.18S
CHETEK         NOT AVBL
LADYSMITH      CLEAR     68  64  86 SE3       30.21S
EAU CLAIRE     CLEAR     71  66  84 S6        30.16S
MENOMONIE      CLEAR     69  67  93 E5        30.17R
NEW RICHMOND   CLEAR     69  67  94 SE5       30.15S
OSCEOLA        CLEAR     71  71 100 SE5       30.16S
$$

WIZ003>005-009-010-017-018-290400-
NORTH CENTRAL WISCONSIN

CITY           SKY/WX    TMP DP  RH WIND       PRES   REMARKS
MANITOWISH WTR NOT AVBL
ARBOR VITAE    CLEAR     65  63  91 CALM      30.23S
WOODRUFF       CLEAR     65  63  91 CALM      30.23S
RHINELANDER    CLEAR     63  62  97 CALM      30.24S
EAGLE RIVER    FOG       60  60 100 CALM      30.23S VSB 1
LAND O LAKES   CLEAR     58  57  99 CALM      30.25R
PHILLIPS       CLEAR     63  63  97 CALM      30.21S
TOMAHAWK       CLEAR     62  60  94 CALM      30.23S
MEDFORD        CLEAR     66  66 100 SE3       30.22S
MERRILL        CLEAR     63  63  99 CALM      30.23S
$$

WIZ029-030-035-036-043>047-290400-
CENTRAL WISCONSIN

CITY           SKY/WX    TMP DP  RH WIND       PRES   REMARKS
WAUSAU         CLEAR     66  63  90 E3        30.20F
MOSINEE        CLEAR     68  66  94 E3        30.23S
MARSHFIELD     CLEAR     67  63  87 CALM      30.20F
STEVENS POINT  CLEAR     64  64  97 CALM      30.22S
WAUPACA        CLEAR     67  67  99 CALM      30.21S
WAUTOMA        CLEAR     65  64  97 CALM      30.21S
WISC RAPIDS    CLEAR     65  65 100 CALM      30.22S FOG
CAMP DOUGLAS   CLEAR     64  64 100 E3        30.19F FOG
$$

WIZ011>013-019>022-031-037>040-048>050-290400-
NORTHEAST WISCONSIN

CITY           SKY/WX    TMP DP  RH WIND       PRES   REMARKS
ANTIGO         CLEAR     62  61  96 CALM      30.24F
SHAWANO        CLEAR     67  64  91 CALM      30.21F
OCONTO         NOT AVBL
STURGEON BAY   CLEAR     65  62  90 S6        30.23F
GREEN BAY      CLEAR     64  64 100 CALM      30.22S
MANITOWOC      FOG       63  61  93 CALM      30.22  VSB 1/2
APPLETON       NOT AVBL
CLINTONVILLE   CLEAR     63  63 100 CALM      30.21F
OSHKOSH        CLEAR     67  65  93 CALM      30.21S
$$

WIZ032>034-041-042-053>061-290400-
SOUTHWEST WISCONSIN

CITY           SKY/WX    TMP DP  RH WIND       PRES   REMARKS
LA CROSSE      CLEAR     74  70  87 SE7       30.16S
SPARTA         CLEAR     65  65  97 CALM      30.19S
VIROQUA        CLEAR     70  70 100 E5        30.20S
BOSCOBEL       PTCLDY    72  71  97 CALM      30.18R
PRAIRIE DU CHI CLOUDY    74  71  91 CALM      30.17R
PLATTEVILLE    MOCLDY    71  71  98 S3        30.20R
$$

WIZ056-057-062-063-064-067-068-290400-
SOUTH CENTRAL WISCONSIN

CITY           SKY/WX    TMP DP  RH WIND       PRES   REMARKS
REEDSBURG      NOT AVBL
BARABOO/DELLS  PTCLDY    67  65  93 E3        30.20S
LONE ROCK      CLOUDY    70  67  90 CALM      30.19R
MINERAL POINT  CLOUDY    73  72  94 CALM      30.21R
MADISON        CLOUDY    71  67  87 CALM      30.20R
MIDDLETON      CLOUDY    68  68 100 CALM      30.21S
WATERTOWN      PTCLDY    68  68 100 E3        30.21S
MONROE         CLOUDY    73  66  78 CALM      30.20S
JANESVILLE     NOT AVBL
$$

WIZ051-052-058>065-066-070>072-290400-
SOUTHEAST WISCONSIN

CITY           SKY/WX    TMP DP  RH WIND       PRES   REMARKS
MILWAUKEE      PTCLDY    70  66  87 CALM      30.21S
WAUKESHA       PTCLDY    66  64  94 CALM      30.23S
MILWAUKEE/TIMM CLOUDY    68  63  83 CALM      30.23S
RACINE         MOCLDY    68  66  93 CALM      30.24R
BURLINGTON     PTCLDY    66  65  97 CALM      30.22R
KENOSHA        CLOUDY    67  65  93 E5        30.23R FOG
FOND DU LAC    CLEAR     66  64  93 S6        30.22R
SHEBOYGAN      FOG       63  61  93 CALM      30.22S VSB 1/2
WEST BEND      CLOUDY    63  63 100 CALM      30.23S FOG
JUNEAU         CLEAR     68  65  92 E5        30.22S
$$

LSZ147-162-290400-
LAKE SUPERIOR

STATION/POSITION TIME  TEMP    WIND        PRES    WAVE
                       AIR SEA DIR/SP/G            HT/PER
                 (UTC) (F)     (DEG/KT/KT) (MB)    (FT/S)
W MID LAKE BUOY  0250   67 67  110/  8/  8 1022.1R   0
DEVILS ISLAND    0300   66     110/  9/ 10 1021.7F
PORT WING        0200   67     140/  2/  5 1021.3R
SAXON HARBOR     0240   64     200/  4/  5 1021.7R
$$

LMZ867-665-643>646-290400-
LAKE MICHIGAN

STATION/POSITION TIME  TEMP    WIND        PRES    WAVE
                       AIR SEA DIR/SP/G            HT/PER
                 (UTC) (F)     (DEG/KT/KT) (MB)    (FT/S)
CHAMBERS ISLAND  0200   67     150/  3/  6 1023.0R
S GREEN BAY BUOY 0200   70 72  140/ 10/ 12 1022.7R
N MID LAKE BUOY  0250   70 71  110/  2/  2 1023.2R   0
NORTHPORT PIER   0200   68     170/  5/  6 1023.0R
KEWAUNEE LAKESHO 0200   64     150/  2/  2 1022.9R
SHEBOYGAN LAKESH 0300   67      10/  1/  1 1022.8F
PORT WASHINGTON  0240   68     260/  2/  3 1024.0R
ATWATER BUOY     0300   67     350/  4/  6   N/A
MILWAUKEE LAKESH 0210   68     310/  1/  2   N/A
S MID LAKE BUOY  0250   74 75   50/  8/ 10 1022.5R   1
KENOSHA   LAKESH 0300   70      50/  5/  6 1023.0R
$$

TC  - TEMPERATURE IN CELSIUS
VSB - VISIBILITY IN STATUTE MILES
WCI - WIND CHILL INDEX
HX  - HEAT INDEX





USA.gov is the U.S. government's official web portal to all federal, state and local government web resources and services.